TimeCST,TemperatureF,Dew PointF,Humidity,Sea Level PressureIn,VisibilityMPH,Wind Direction,Wind SpeedMPH,Gust SpeedMPH,PrecipitationIn,Events,Conditions,WindDirDegrees,DateUTC
12:15 AM,28.6,25.0,86,29.72,10.0,SE,5.8,-,N/A,,Clear,140,2012-12-17 06:15:00
12:35 AM,26.6,23.5,88,29.72,7.0,SSE,5.8,-,N/A,,Clear,150,2012-12-17 06:35:00
12:55 AM,26.2,23.0,88,29.70,10.0,SSE,5.8,-,N/A,,Clear,150,2012-12-17 06:55:00
1:15 AM,26.6,23.2,87,29.69,10.0,SE,8.1,-,N/A,,Clear,130,2012-12-17 07:15:00
1:35 AM,26.6,23.2,87,29.69,10.0,SE,6.9,-,N/A,,Clear,130,2012-12-17 07:35:00
1:55 AM,25.5,22.1,87,29.69,10.0,SSE,4.6,-,N/A,,Clear,160,2012-12-17 07:55:00
2:15 AM,25.5,22.1,87,29.68,10.0,SSE,4.6,-,N/A,,Clear,160,2012-12-17 08:15:00
2:35 AM,27.1,23.2,85,29.68,10.0,South,3.5,-,N/A,,Clear,170,2012-12-17 08:35:00
2:55 AM,27.0,23.0,85,29.68,10.0,Calm,Calm,-,N/A,,Clear,0,2012-12-17 08:55:00
3:15 AM,28.8,24.4,84,29.68,10.0,Calm,Calm,-,N/A,,Clear,0,2012-12-17 09:15:00
3:35 AM,27.0,22.8,84,29.67,10.0,SSW,3.5,-,N/A,,Clear,210,2012-12-17 09:35:00
3:55 AM,26.4,22.8,86,29.67,10.0,West,3.5,-,N/A,,Clear,280,2012-12-17 09:55:00
4:15 AM,24.4,21.2,87,29.67,10.0,NW,5.8,-,N/A,,Scattered Clouds,310,2012-12-17 10:15:00
4:35 AM,26.6,22.5,84,29.67,10.0,NW,9.2,-,N/A,,Clear,310,2012-12-17 10:35:00
4:55 AM,25.3,21.4,85,29.67,10.0,NW,12.7,-,N/A,,Clear,320,2012-12-17 10:55:00
5:15 AM,23.7,20.3,87,29.67,10.0,NW,11.5,16.1,N/A,,Scattered Clouds,310,2012-12-17 11:15:00
5:35 AM,23.9,21.2,89,29.68,7.0,NW,15.0,-,N/A,,Overcast,310,2012-12-17 11:35:00
5:55 AM,23.9,21.7,91,29.69,5.0,NW,12.7,18.4,N/A,,Overcast,310,2012-12-17 11:55:00
6:15 AM,24.6,22.5,91,29.68,5.0,NNW,13.8,21.9,N/A,,Overcast,330,2012-12-17 12:15:00
6:35 AM,24.8,22.8,92,29.69,5.0,NNW,12.7,18.4,N/A,,Overcast,330,2012-12-17 12:35:00
6:55 AM,24.8,22.6,91,29.69,5.0,NW,11.5,16.1,N/A,,Overcast,320,2012-12-17 12:55:00
7:15 AM,24.8,22.6,91,29.70,5.0,NW,12.7,-,N/A,,Overcast,320,2012-12-17 13:15:00
7:35 AM,24.6,22.5,91,29.70,5.0,WNW,12.7,-,N/A,,Overcast,300,2012-12-17 13:35:00
7:55 AM,24.3,22.1,91,29.70,4.0,NNW,9.2,16.1,N/A,,Overcast,330,2012-12-17 13:55:00
8:15 AM,24.8,22.6,91,29.70,5.0,NNW,10.4,-,N/A,,Overcast,330,2012-12-17 14:15:00
8:35 AM,24.8,23.0,93,29.70,4.0,NW,11.5,-,N/A,,Overcast,320,2012-12-17 14:35:00
8:55 AM,25.5,23.4,92,29.70,4.0,NW,10.4,-,N/A,,Overcast,320,2012-12-17 14:55:00
9:15 AM,26.1,23.9,92,29.70,4.0,NNW,11.5,-,N/A,,Overcast,330,2012-12-17 15:15:00
9:35 AM,26.6,24.4,92,29.70,5.0,NNW,10.4,-,N/A,,Overcast,330,2012-12-17 15:35:00
9:55 AM,27.3,24.8,90,29.70,5.0,NW,8.1,-,N/A,,Overcast,310,2012-12-17 15:55:00
10:15 AM,27.5,24.8,90,29.70,5.0,NNW,8.1,-,N/A,,Overcast,330,2012-12-17 16:15:00
10:35 AM,28.0,25.5,90,29.70,5.0,NNW,6.9,-,N/A,,Overcast,330,2012-12-17 16:35:00
10:55 AM,28.4,25.7,90,29.70,5.0,North,6.9,-,N/A,,Overcast,360,2012-12-17 16:55:00
11:15 AM,28.4,25.7,90,29.70,5.0,WNW,4.6,-,N/A,,Overcast,300,2012-12-17 17:15:00
11:35 AM,28.9,25.9,88,29.70,5.0,West,4.6,-,N/A,,Overcast,260,2012-12-17 17:35:00
11:55 AM,29.3,26.1,88,29.69,5.0,WNW,4.6,-,N/A,,Overcast,290,2012-12-17 17:55:00
12:15 PM,29.8,26.4,87,29.68,5.0,Calm,Calm,-,N/A,,Overcast,0,2012-12-17 18:15:00
12:35 PM,30.2,26.6,86,29.67,7.0,Calm,Calm,-,N/A,,Overcast,0,2012-12-17 18:35:00
12:55 PM,31.5,27.5,85,29.66,7.0,West,4.6,-,N/A,,Overcast,260,2012-12-17 18:55:00
1:15 PM,30.7,26.8,85,29.65,7.0,Calm,Calm,-,N/A,,Overcast,0,2012-12-17 19:15:00
1:35 PM,32.0,27.3,83,29.64,10.0,SW,4.6,-,N/A,,Overcast,220,2012-12-17 19:35:00
1:55 PM,32.4,27.9,83,29.63,10.0,South,3.5,-,N/A,,Overcast,190,2012-12-17 19:55:00
2:15 PM,32.7,27.5,81,29.62,10.0,South,3.5,-,N/A,,Scattered Clouds,170,2012-12-17 20:15:00
2:35 PM,32.7,27.7,82,29.62,10.0,South,3.5,-,N/A,,Clear,180,2012-12-17 20:35:00
2:55 PM,34.0,28.2,79,29.61,10.0,South,4.6,-,N/A,,Clear,170,2012-12-17 20:55:00
3:15 PM,34.7,28.6,78,29.60,10.0,SE,4.6,-,N/A,,Clear,140,2012-12-17 21:15:00
3:35 PM,34.9,28.4,77,29.60,10.0,SSE,5.8,-,N/A,,Clear,160,2012-12-17 21:35:00
3:55 PM,35.1,28.9,78,29.59,10.0,SSE,6.9,-,N/A,,Clear,150,2012-12-17 21:55:00
6:35 PM,28.8,26.4,91,29.58,5.0,ESE,6.9,-,N/A,,Clear,120,2012-12-18 00:35:00
6:55 PM,28.2,26.1,92,29.58,5.0,ESE,9.2,-,N/A,,Scattered Clouds,120,2012-12-18 00:55:00
7:15 PM,28.2,26.1,92,29.58,5.0,SE,8.1,-,N/A,,Overcast,130,2012-12-18 01:15:00
7:35 PM,28.4,26.4,92,29.57,4.0,SE,8.1,-,N/A,,Overcast,130,2012-12-18 01:35:00
7:55 PM,28.2,26.4,93,29.57,2.0,ESE,8.1,-,N/A,,Overcast,120,2012-12-18 01:55:00
8:15 PM,28.4,26.6,93,29.57,0.5,SE,8.1,-,N/A,Fog,Light Freezing Fog,130,2012-12-18 02:15:00
8:35 PM,28.4,27.0,94,29.56,0.5,SE,9.2,-,N/A,Fog,Light Freezing Fog,130,2012-12-18 02:35:00
8:55 PM,28.4,27.0,94,29.55,0.5,SE,9.2,-,N/A,Fog,Light Freezing Fog,130,2012-12-18 02:55:00
9:15 PM,28.4,26.6,93,29.53,0.5,ESE,11.5,-,N/A,Fog,Light Freezing Fog,120,2012-12-18 03:15:00
9:35 PM,28.4,26.6,93,29.53,0.5,SE,9.2,-,N/A,Fog,Light Freezing Fog,130,2012-12-18 03:35:00
9:55 PM,28.4,26.6,93,29.52,0.8,ESE,11.5,-,N/A,,Overcast,120,2012-12-18 03:55:00
10:15 PM,28.4,26.6,93,29.53,0.8,ESE,9.2,-,N/A,,Overcast,120,2012-12-18 04:15:00
10:35 PM,28.4,26.6,93,29.52,1.0,SE,10.4,-,N/A,,Overcast,130,2012-12-18 04:35:00
10:55 PM,28.4,26.6,93,29.51,1.0,SE,10.4,-,N/A,,Overcast,130,2012-12-18 04:55:00
11:15 PM,28.4,26.6,93,29.51,0.8,SE,10.4,-,N/A,,Overcast,130,2012-12-18 05:15:00
11:35 PM,28.4,26.6,93,29.50,0.8,SE,10.4,-,N/A,,Overcast,140,2012-12-18 05:35:00
11:55 PM,28.2,26.4,93,29.48,1.0,SE,11.5,-,N/A,,Overcast,140,2012-12-18 05:55:00